Starlink 6044

operational
NORAD ID: 56479 Int'l Des: 2023-064 Owner: SPXS Country: US Constellation: starlink
LEOCIRCULAR

关于 Starlink 6044

正在加载描述...

实时位置

正在加载3D地球...

即将过境

高度历史

Altitude vs Time

uPlot chart will show altitude changes over time

两行轨道根数

1 56479U 23064AH 26063.15212286 .00000054 00000-0 12311-4 0 9991
2 56479 69.9999 138.2666 0003402 267.2381 92.8389 14.98332717154918
Epoch: Mar 4, 2026 • Age: 16 hours

当前状态

高度 575.0 km
速度 7.57 km/s
星下点 -3.53°S, 86.41°E
发射日期 May 10, 2023
运行时间 2.8 years
类型 internet

技术详情

分类 Payload
质量 305.00 kg
干质量 290.00 kg
总质量 305.00 kg
长度 0.20 m
直径 2.80 m
跨度 9.00 m
形状 Box + pan
制造商 SPXS
平台类型 Starlink
阶段状态 In Orbit
所有者/国家 SPXS/US

大型星座

Loading constellations...